User: anonymous   Login
Location: Unspecified
(0.0000°N, 0.0000°E)
Time: 14:43:04
(UTC+00:00)
Language:

NAPA-2 - Orbit

View from above orbital plane
View from above orbital plane
View from above satellite
View from above satellite

Ground track
Ground track

The orbit is defined by the following mean orbital elements,

1 48963U          26065.28371207 +.00000000 +00000-0 +73288-3 0 00003
2 48963  97.6842 252.4360 0003594 329.0208  31.0841 15.70216142    01
Epoch (UTC): 06 March 2026 06:48:32
Eccentricity: 0.0003594
inclination: 97.6842°
perigee height: 356 km
apogee height: 361 km
right ascension of ascending node: 252.4360°
argument of perigee: 329.0208°
revolutions per day: 15.70216142
mean anomaly at epoch: 31.0841°

The dashed part of the orbit path shows where the satellite is in the earth's shadow,  

DLR